Regional Weather Roundup
Issued by NWS Newport/Morehead, NC

Current Version | Previous Version | Graphics & Text | Print | Product List | Glossary Off
Versions: 1 2 3 4 5 6 7 8 9 10 11 12 13 14 15 16 17 18 19 20 21 22 23 24 25 26 27 28 29 30 31 32 33 34 35 36 37 38 39 40 41 42 43 44 45 46 47 48 49 50

000
ASUS42 KMHX 240625
RWRMHX
WEATHER ROUNDUP FOR EASTERN NORTH CAROLINA
NATIONAL WEATHER SERVICE NEWPORT/MOREHEAD CITY NC
200 AM EDT TUE APR 24 2018

NOTE: "FAIR" INDICATES FEW OR NO CLOUDS BELOW 12,000 FEET
WITH NO SIGNIFICANT WEATHER AND/OR OBSTRUCTIONS TO VISIBILITY

NCZ015>017-031-032-045>047-102-103-240700-
NORTH COAST

CITY           SKY/WX    TMP DP  RH WIND       PRES   REMARKS
EDENTON        CLOUDY    63  53  69 E12G17    30.22F
ELIZABETH CITY MOCLDY    60  51  72 E10       30.25F
KITTY HAWK     FAIR      57  49  72 SE9G17    30.23F
MANTEO         FAIR      60  49  67 SE12G17   30.24F

$$

NCZ045>047-081-094-103-104-240700-
CENTRAL COAST

CITY           SKY/WX    TMP DP  RH WIND       PRES   REMARKS
FRISCO         FAIR      66  57  72 SE22      30.21F

$$

NCZ095-097-098-100-101-240700-
SOUTHERN COAST

CITY           SKY/WX    TMP DP  RH WIND       PRES   REMARKS
BEAUFORT       LGT RAIN  64  58  80 SE15G22   30.15F
CEDAR ISLAND   NOT AVBL
JACKSONVILLE   CLOUDY    63  60  90 E13       30.11F
PINEY ISLAND   NOT AVBL
WILMINGTON     LGT RAIN  63  58  83 E17G26    30.08F


$$

NCZ011>013-027>030-043-044-078>080-089-090>093-098-240700-
COASTAL PLAIN

CITY           SKY/WX    TMP DP  RH WIND       PRES   REMARKS
AHOSKIE        CLOUDY    56  48  73 NE6       30.21F
CLINTON        CLOUDY    61  59  94 E6        30.09F
ELIZABETHTOWN  LGT RAIN  61  60  95 MISG      30.06F FOG
GOLDSBORO      CLOUDY    60  53  77 E10       30.11F
GREENVILLE     CLOUDY    61  50  67 E9        30.17F
HAVELOCK       NOT AVBL
KENANSVILLE    LGT RAIN  59  57  94 E6        30.10F
KINSTON        DRIZZLE   62  55  76 E10G16    30.14F
NEW BERN       LGT RAIN  61  58  90 E9        30.16F
RICHLANDS      LGT RAIN  62  59  90 E9G18     30.13F
ROCKY MOUNT    LGT RAIN  59  49  69 E8        30.16F
WASHINGTON     CLOUDY    61  52  72 CALM      30.17F
WHITEVILLE     RAIN      63  61  94 E12G20    30.03F

$$

AMZ130-135-150-152-154-156-158-170-250-252-270-ANZ085-086-088-633-658-670-240700-
MARINE OBSERVATIONS

STATION/POSITION TIME  TEMP    WIND        PRES    WAVE   SWELL
                       AIR SEA DIR/SP/G            HT/PER HT/PER
                 (UTC) (F)     (DEG/KT/KT) (MB)    (FT/S) (FT/S)
CHESAPEAKE LIGHT NOT AVBL
64 E VA BEACH    0550   55 50  110/ 16/ 17 1026.1    4/ 6   2/ 8
DUCK             0600   55 54   80/ 12/ 14 1024.1
2 E DUCK         0600      53                N/A     4/ 7
OREGON INLET     0600   57 57   90/  8/ 13 1024.0
13E OREGON INLT  0548      52                N/A     6/ 7   5/ 7
HATTERAS CG      0600   66 62  120/ 16/ 22 1022.5
DIAMOND BUOY     0610   69 72  120/ 25/ 31 1022.7
CAPE LOOKOUT     0500          110/ 21/ 23 1021.9
BEAUFORT LAB     0600   65 63  120/ 17/ 22 1020.8
30 SE NEW RVR IN 0608   66 65  140/ 21/ 29 1018.9
30 SE NEW RVR IN 0600      65                N/A    11/ 8   2/11
27 SE WRIGHTSVLE 0608   65 65  130/ 27/ 39 1018.9
5 SE WRIGHTSVLE  0608   63 61  140/ 19/ 29 1016.9
225 S CAPE HAT   0610   69 72  130/ 23/ 29 1020.3
41 SE CHARLESTON 0610      68  140/ 27/ 39 1012.5

$$



USA.gov is the U.S. government's official web portal to all federal, state and local government web resources and services.